Preview of NWS' New Version of Forecast
This preview is not operational and should not be used for support decisions.

Regional Weather Roundup (RWR)

Issued by National Weather Service (NWS)

                            
000
ASUS45 KCYS 191510
RWRWY 

WYOMING REGIONAL WEATHER ROUNDUP
NATIONAL WEATHER SERVICE CHEYENNE WY
900 AM MDT FRI APR 19 2019

NOTE:  "FAIR" INDICATES FEW OR NO CLOUDS BELOW 12,000 FEET
WITH NO SIGNIFICANT WEATHER AND/OR OBSTRUCTIONS TO VISIBILITY.

WYZ001-191600-
...YELLOWSTONE NATIONAL PARK...
  
CITY           SKY/WX    TMP DP  RH WIND       PRES   REMARKS
LK YELLOWSTONE   N/A     34  26  72 CALM      30.30S                  
W YELLOWSTONE  NOT AVBL                                               

$$
WYZ002>013-054>058-071-098>099-191600-
...NORTHERN WYOMING...
  
CITY           SKY/WX    TMP DP  RH WIND       PRES   REMARKS
JACKSON        SUNNY     36  28  73 NE6       30.29S WCI  31          
CODY           MOSUNNY   60  31  33 W13G26    30.10S                  
GREYBULL       MOSUNNY   52  30  43 SE3       30.10S                  
WORLAND        MOSUNNY   51  35  54 SW5       30.10S                  
SHERIDAN       MOSUNNY   60  39  45 CALM      30.03S                  
BUFFALO        MOSUNNY   62  34  35 SE3       30.08R                  
GILLETTE       MOSUNNY   60  36  40 W14       30.05S                  
HULETT         CLOUDY    54  32  43 SW10      30.05S                  
NEWCASTLE      CLOUDY    48  28  46 S5        30.08F                  

$$
WYZ014>020-022>026-101>103-191600-
...CENTRAL WYOMING...
  
CITY           SKY/WX    TMP DP  RH WIND       PRES   REMARKS
BIG PINEY      SUNNY     41  30  65 SW3       30.29S                  
PINEDALE       SUNNY     37  30  75 CALM      30.29S                  
DUBOIS         FAIR      50  28  43 N17G24    30.20F                  
LANDER         SUNNY     48  34  58 E5        30.16S                  
RIVERTON       MOSUNNY   50  32  50 SW9       30.17R                  
CASPER         MOSUNNY   54  34  46 SW18      30.15S                  
DOUGLAS        SUNNY     47  35  63 NW8       30.13F                  

$$
WYZ021-027>030-104>119-191600-
...SOUTHERN WYOMING...
  
CITY           SKY/WX    TMP DP  RH WIND       PRES   REMARKS
EVANSTON       SUNNY     42  25  50 S7        30.30S                  
KEMMERER       SUNNY     43  32  65 CALM      30.30F                  
FORT BRIDGER   NOT AVBL                                               
ROCK SPRINGS   SUNNY     47  28  47 W5        30.28S                  
DIXON          FAIR      47  31  53 E6        30.32F                  
RAWLINS        SUNNY     50  32  50 W18       30.25F                  
SARATOGA       FAIR      48  30  49 E6        30.28F                  
LARAMIE        NOT AVBL                                               
CHEYENNE       SUNNY     56  30  37 NW15G24   30.17S                  
TORRINGTON     SUNNY     45  32  60 NW5       30.11S                  
PINE BLUFFS    FAIR      52  30  43 SW10      30.16S                  

$$